[[{"header":{"parameterUnit":"m.s-1","parameterCategory":1,"la1":30.2991,"la2":30.254,"lo1":-89.0895,"lo2":-89.0444,"dy":0.0017,"dx":0.0017,"nx":28,"ny":28,"refTime":"2025-11-30T09:00:00:Z","depth":0,"parameterNumber":2,"parameterNumberName":"U-component_of_WINDS"},"data":[0,0,0,0,0,0,0,0,0,0,0,0,0,0,0,0,0,0,0,0,0,0,0,0,0,0,0,0,0,0,0,0,0,0,0,0,0,0,0,0,0,0,0,0,0,0,0,0,0,0,0,0,0,0,0,0,0,0,0.4541,0.4538,0,0.4243,0.424,0.4236,0.4037,0.4036,0.4034,0.4033,0.3724,0.3717,0.371,0,0,0,0,0,0,0,0,0,0,0,0,0,0.4933,0.4927,0.4541,0.4537,0.4534,0.4244,0.4239,0.4235,0.4037,0.4036,0.4034,0.4032,0.3726,0.3718,0.371,0,0,0,0,0,0,0,0,0,0,0,0,0,0.4712,0.4925,0.4542,0.44,0.4384,0.4244,0.4239,0.4234,0.4038,0.4035,0.4033,0.4032,0.3729,0.3719,0.3709,0.3685,0,0,0.3677,0.3672,0,0,0,0,0,0,0,0,0.4725,0.4698,0.4424,0.4409,0.4392,0.4175,0.4264,0.405,0.4038,0.4169,0.4033,0.4031,0.3875,0.3853,0.3801,0.3671,0.3657,0.3676,0.3669,0.3665,0.3662,0,0,0,0,0,0,0,0.474,0.4709,0.4423,0.4421,0.4401,0.4349,0.4316,0.4223,0.4037,0.4157,0.4142,0.411,0.3866,0.3812,0.3793,0.3653,0.3676,0.3667,0.366,0.3656,0.3487,0.3488,0,0,0,0,0,0,0.4779,0.4724,0.4432,0.4414,0.4557,0.4344,0.4306,0.4247,0.4038,0.4004,0.4112,0.4102,0.3831,0.3805,0.3781,0.3739,0.3665,0.3655,0.3649,0.3485,0.3487,0.3489,0,0,0,0,0,0,0.4788,0.4755,0.4444,0.4564,0.4521,0.434,0.4274,0.4242,0.4187,0.4003,0.3969,0.4091,0.3828,0.3796,0.371,0.3726,0.365,0.3641,0.3483,0.3486,0.3488,0.3658,0,0,0,0,0,0,0.48,0.4759,0.475,0.4566,0.4516,0.4381,0.4275,0.4237,0.417,0.4154,0.3975,0.3943,0.3824,0.3727,0.37,0.371,0.3633,0.3481,0.3484,0.3487,0.365,0.3666,0.3679,0,0,0,0,0,0.4815,0.4808,0.475,0.4716,0.45,0.4382,0.4353,0.4218,0.4173,0.4161,0.4042,0.3949,0.3729,0.372,0.3688,0.3695,0.3479,0.3483,0.3487,0.3643,0.3663,0.3679,0,0,0,0,0,0,0.4997,0.4782,0.4715,0.4649,0.4536,0.4349,0.433,0.4243,0.4139,0.4128,0.3962,0.3923,0.3855,0.3766,0.376,0.3661,0.3593,0.359,0.3722,0.3739,0.3754,0.3777,0.3624,0,0,0,0,0,0.503,0.4954,0.4769,0.4728,0.4675,0.4513,0.4456,0.4362,0.4237,0.4188,0.4063,0.3945,0.3848,0.3788,0.369,0.3636,0.3593,0.3625,0.364,0.3653,0.3653,0.3617,0.3629,0.3502,0.3502,0.3502,0,0,0.5096,0.4969,0.4931,0.4762,0.4663,0.4587,0.4474,0.4397,0.4339,0.4175,0.4088,0.3993,0.3849,0.378,0.3743,0.3703,0.3678,0.3658,0.3669,0.3662,0.3622,0.3635,0.3646,0.3505,0.3504,0.3504,0,0,0.5178,0.5075,0.503,0.4934,0.4786,0.4678,0.4668,0.4493,0.4424,0.4334,0.421,0.4137,0.3975,0.3878,0.3808,0.3854,0.3763,0.3826,0.3903,0.387,0.388,0.3888,0.3905,0.3913,0.3826,0.3827,0.3827,0,0.5279,0.5161,0.5018,0.4949,0.4878,0.4728,0.4681,0.4593,0.4421,0.4375,0.4333,0.4127,0.402,0.3926,0.3937,0.3885,0.3867,0.3846,0.3891,0.3897,0.3903,0.3917,0.3923,0.3835,0.3834,0.3833,0.3833,0,0.5292,0.5212,0.5193,0.5032,0.4959,0.4901,0.4748,0.4691,0.4603,0.4499,0.4409,0.4275,0.4147,0.4117,0.4029,0.401,0.399,0.3922,0.385,0.3926,0.3936,0.394,0.3848,0.3845,0.3842,0.384,0,0,0.5481,0.5242,0.5238,0.5163,0.4989,0.4923,0.4858,0.4734,0.4689,0.4574,0.4515,0.4382,0.4318,0.4238,0.4138,0.4109,0.4154,0.4044,0.4038,0.407,0.4125,0.4178,0.4187,0.4093,0.4094,0.4094,0.4137,0,0.5537,0.5415,0.5285,0.5208,0.5132,0.4988,0.4931,0.4818,0.4719,0.4639,0.4528,0.4437,0.4359,0.431,0.4275,0.4157,0.4163,0.4151,0.4036,0.4034,0.4078,0.4192,0.4247,0.4295,0.414,0.4141,0.4141,0,0.5586,0.5481,0.5398,0.5232,0.5194,0.5146,0.5022,0.4947,0.4815,0.4745,0.4657,0.4551,0.4474,0.4411,0.4302,0.4297,0.4242,0.4177,0.4175,0.4159,0.4093,0.418,0.4306,0.4314,0.4146,0.4145,0.4145,0,0.5734,0.5571,0.55,0.544,0.5244,0.5213,0.513,0.4995,0.4929,0.482,0.4775,0.4659,0.4595,0.4506,0.437,0.4337,0.4276,0.4202,0.4215,0.4219,0.421,0.4212,0.433,0.4174,0.4174,0.4174,0.4173,0,0.581,0.5765,0.5563,0.552,0.5464,0.5314,0.5262,0.5165,0.5048,0.4982,0.4849,0.479,0.4614,0.4534,0.4427,0.4353,0.4325,0.4266,0.4238,0.4278,0.4286,0.424,0.4233,0.4175,0.4175,0.4175,0.4174,0,0.5966,0.5829,0.5742,0.5564,0.5518,0.5485,0.5331,0.5283,0.5176,0.5095,0.5067,0.4899,0.4798,0.4654,0.4507,0.4435,0.4377,0.4332,0.4423,0.4407,0.4429,0.4429,0.4521,0.4526,0.4369,0.437,0.4372,0,0.6024,0.5986,0.5805,0.5752,0.5674,0.559,0.5522,0.5372,0.5307,0.5154,0.5124,0.5012,0.4915,0.4759,0.4623,0.451,0.4462,0.4502,0.4444,0.4486,0.4463,0.4468,0.4463,0.4517,0.4519,0.4521,0.4523,0,0.6143,0.6077,0.5986,0.5871,0.5795,0.5697,0.5592,0.5556,0.5383,0.5316,0.5211,0.5136,0.4988,0.4878,0.4748,0.4659,0.4562,0.4542,0.4539,0.458,0.4635,0.4606,0.4462,0.4541,0.4539,0.4538,0.4537,0.4536,0.625,0.6211,0.6077,0.598,0.5886,0.5791,0.5738,0.5625,0.5536,0.5405,0.5321,0.5221,0.5088,0.4902,0.4819,0.4737,0.4697,0.4693,0.4692,0.4694,0.4708,0.4648,0.4712,0.4712,0.4711,0.471,0.471,0,0.6363,0.627,0.6182,0.6041,0.5965,0.5882,0.5762,0.5703,0.5617,0.5502,0.541,0.529,0.5183,0.504,0.4922,0.4885,0.4837,0.4859,0.486,0.4842,0.475,0.4765,0.4899,0.4899,0.4899,0.4899,0.4899,0.4899,0.6412,0.634,0.6259,0.6139,0.6045,0.5947,0.5886,0.5798,0.5706,0.5579,0.549,0.5398,0.5271,0.5143,0.5042,0.5002,0.4965,0.5001,0.4948,0.4865,0.4848,0.4832,0.4844,0.4994,0.4994,0.5046,0.5046,0.5047]},{"header":{"parameterUnit":"m.s-1","parameterCategory":1,"la1":30.2991,"la2":30.254,"lo1":-89.0895,"lo2":-89.0444,"dy":0.0017,"dx":0.0017,"nx":28,"ny":28,"refTime":"2025-11-30T09:00:00:Z","depth":0,"parameterNumber":3,"parameterNumberName":"V-component_of_WINDS"},"data":[0,0,0,0,0,0,0,0,0,0,0,0,0,0,0,0,0,0,0,0,0,0,0,0,0,0,0,0,0,0,0,0,0,0,0,0,0,0,0,0,0,0,0,0,0,0,0,0,0,0,0,0,0,0,0,0,0,0,4.9303,4.9308,0,4.9748,4.9753,4.9758,4.9925,4.9923,4.9922,4.9921,5.0363,5.0376,5.0388,0,0,0,0,0,0,0,0,0,0,0,0,0,4.858,4.8592,4.9303,4.9308,4.9314,4.9747,4.9754,4.976,4.9925,4.9923,4.9922,4.992,5.0359,5.0374,5.039,0,0,0,0,0,0,0,0,0,0,0,0,0,4.8946,4.8596,4.9302,4.9449,4.9467,4.9746,4.9754,4.9761,4.9925,4.9923,4.9921,4.9919,5.0353,5.0372,5.0392,5.0553,0,0,5.0451,5.046,0,0,0,0,0,0,0,0,4.8925,4.8972,4.9422,4.944,4.946,4.9779,4.9661,5.0026,4.9926,4.9751,4.9921,4.9918,5.0169,5.0204,5.0292,5.0574,5.0593,5.0453,5.0465,5.0474,5.0479,0,0,0,0,0,0,0,4.8899,4.8954,4.9479,4.9428,4.9451,4.9488,4.9537,4.9731,4.9965,4.9766,4.9779,4.983,5.0179,5.0272,5.0303,5.0599,5.0453,5.047,5.0482,5.049,5.1033,5.1035,0,0,0,0,0,0,4.8851,4.8932,4.9465,4.9492,4.9182,4.9502,4.9558,4.9678,4.9964,5.0006,4.9831,4.9836,5.024,5.028,5.0319,5.0527,5.0473,5.0492,5.0503,5.103,5.1033,5.1036,0,0,0,0,0,0,4.8835,4.8898,4.9447,4.9216,4.9289,4.9517,4.9651,4.9688,4.9782,5.0014,5.0055,4.9885,5.024,5.0292,5.0494,5.0544,5.05,5.0518,5.1027,5.1031,5.1035,5.0941,0,0,0,0,0,0,4.8814,4.8891,4.8959,4.9216,4.93,4.9619,4.9654,4.9698,4.9817,4.9827,5.0075,5.0113,5.0242,5.0464,5.0513,5.057,5.0534,5.1023,5.1029,5.1034,5.0941,5.0942,5.0942,0,0,0,0,0,4.8788,4.8912,4.8961,4.9025,4.9391,4.9621,4.9669,4.9819,4.982,4.9888,5.0036,5.0106,5.053,5.0483,5.054,5.0603,5.1021,5.1027,5.1033,5.0941,5.0942,5.0942,0,0,0,0,0,0,4.865,4.8949,4.9007,4.922,4.9394,4.9649,4.9739,4.9815,4.999,4.9992,5.0165,5.0219,5.0407,5.0525,5.0468,5.0773,5.078,5.0797,5.069,5.0693,5.0693,5.0661,5.055,0,0,0,0,0,4.8646,4.8813,4.9063,4.9226,4.9311,4.9509,4.9615,4.9715,4.9902,4.9975,5.0139,5.0312,5.0485,5.0595,5.0767,5.0958,5.1012,5.1029,5.1029,5.1029,5.1042,5.1149,5.1159,5.1056,5.1056,5.1056,0,0,4.8636,4.882,4.8914,4.9203,4.935,4.9515,4.957,4.9743,4.9865,5.0,5.0203,5.0327,5.0532,5.0729,5.0824,5.0834,5.1082,5.1036,5.1034,5.1049,5.1157,5.1166,5.1174,5.106,5.106,5.1059,0,0,4.8704,4.8861,4.9014,4.916,4.9384,4.9515,4.955,4.9794,4.9883,5.009,5.0194,5.0338,5.0633,5.0774,5.0884,5.1,5.107,5.1051,5.1054,5.1157,5.1165,5.1173,5.1213,5.1226,5.1063,5.1063,5.1063,0,4.8663,4.8921,4.9081,4.9249,4.9371,4.9503,4.9656,4.9789,5.0054,5.0132,5.014,5.0511,5.0658,5.0889,5.0917,5.1002,5.1045,5.1025,5.1152,5.1161,5.1171,5.1211,5.1226,5.1059,5.1059,5.106,5.106,0,4.8858,4.9034,4.913,4.9388,4.952,4.9678,4.9858,4.9971,5.0057,5.0185,5.039,5.0572,5.0781,5.0843,5.0928,5.1085,5.1084,5.1119,5.1129,5.1175,5.1215,5.1232,5.1054,5.1055,5.1056,5.1057,0,0,4.8856,4.9199,4.9231,4.9349,4.9603,4.974,4.9901,5.011,5.0203,5.0379,5.0517,5.0761,5.0795,5.092,5.1021,5.1111,5.1189,5.1135,5.1142,5.1138,5.137,5.1343,5.1359,5.1236,5.1239,5.1242,5.1353,0,4.8957,4.926,4.9406,4.9641,4.9804,4.9929,5.007,5.0237,5.0359,5.051,5.0643,5.0814,5.0846,5.0922,5.1016,5.1159,5.1238,5.1153,5.1362,5.1368,5.1309,5.138,5.1353,5.1449,5.137,5.1373,5.1375,0,4.9118,4.9298,4.955,4.9783,4.9857,4.9981,5.0183,5.0327,5.0517,5.0599,5.0737,5.0835,5.1005,5.1001,5.1234,5.1174,5.1267,5.1349,5.1356,5.1382,5.1375,5.1408,5.1484,5.1498,5.1402,5.1399,5.1398,0,4.9089,4.9394,4.9585,4.9681,4.9958,5.0042,5.016,5.0349,5.0464,5.0637,5.0713,5.0902,5.1005,5.1147,5.1291,5.1276,5.151,5.1519,5.158,5.1576,5.1625,5.1621,5.1717,5.1683,5.1683,5.1683,5.1682,0,4.9188,4.9337,4.9576,4.9693,4.9862,5.0026,5.0187,5.0313,5.0479,5.0619,5.0736,5.0864,5.1047,5.1196,5.1309,5.1484,5.1529,5.1597,5.1626,5.1588,5.1579,5.1652,5.165,5.1687,5.1686,5.1685,5.1684,0,4.9187,4.9353,4.9569,4.9813,4.9878,4.9991,5.0198,5.0313,5.0439,5.0614,5.0664,5.0862,5.1043,5.1201,5.1438,5.1514,5.1694,5.1728,5.1631,5.1647,5.1699,5.1692,5.1847,5.1875,5.182,5.182,5.182,0,4.924,4.9358,4.9615,4.972,4.9837,5.0003,5.0122,5.0284,5.0402,5.0626,5.0713,5.0903,5.1065,5.1346,5.1508,5.1689,5.1729,5.1771,5.1757,5.1715,5.173,5.1722,5.1733,5.1771,5.177,5.177,5.177,0,4.9316,4.9392,4.9561,4.9758,4.9897,5.0059,5.0224,5.0301,5.0493,5.0618,5.0807,5.0932,5.1176,5.1362,5.1561,5.1676,5.1754,5.1773,5.1797,5.176,5.1699,5.1732,5.1631,5.1769,5.1769,5.1769,5.1769,5.1769,4.9344,4.9454,4.9652,4.9836,4.9977,5.0128,5.0248,5.039,5.0552,5.0766,5.085,5.1041,5.1224,5.15,5.1615,5.1764,5.1777,5.1811,5.182,5.1826,5.182,5.1674,5.18,5.18,5.1801,5.1801,5.1801,0,4.9426,4.9559,4.9726,4.9955,5.0097,5.0161,5.0345,5.0459,5.0628,5.0794,5.095,5.1164,5.1344,5.1519,5.1707,5.1792,5.1832,5.1836,5.1832,5.1856,5.1798,5.1759,5.18,5.18,5.18,5.18,5.18,5.18,4.9486,4.9676,4.9774,5.0032,5.0163,5.0355,5.0455,5.0592,5.0726,5.0961,5.1113,5.1227,5.1395,5.1595,5.1762,5.1808,5.1871,5.1865,5.1921,5.1863,5.1861,5.1859,5.1823,5.1878,5.1878,5.1968,5.1969,5.1969]}]]